Location: Knowlton
(51.2333°N, 1.2667°E)
Time: 10:23:51
(UTC+00:00)

COSMOS 2428 - Pass Details

Date: 18 April 2021
Orbit: 844 x 859 km, 70.9° (Epoch: 16 May)

Event Time Altitude Azimuth Distance (km) Brightness Sun altitude
Rises 20:36:25 0° 325° (NW) 3,443 7.5 -14.4°
Reaches altitude 10° 20:39:00 10° 318° (NW) 2,504 6.5 -14.7°
Maximum altitude 20:44:18 39° 252° (WSW) 1,262 3.9 -15.4°
Drops below altitude 10° 20:49:34 10° 185° (S) 2,489 4.8 -16.0°
Enters shadow 20:49:49 - 184° (S) 2,576 4.9 -16.0°
